Liberia, Costa Rica

4:48 AM CST on February 23, 2017 (GMT -0600)
Daniel Oduber Quiros International

Weather History for MRLB - January, 2014

Change the Weather History Date:

Sunday, January 19, 2014

  Actual Average Record
Temperature  
Mean Temperature 82 °F -  
Max Temperature 92 °F 89 °F 93 °F (2001)
Min Temperature 71 °F 74 °F 66 °F (2015)
Cooling Degree Days 16    
Growing Degree Days 32 (Base 50)    
Moisture  
Dew Point 65 °F    
Average Humidity 52    
Maximum Humidity 83    
Minimum Humidity 30    
Precipitation  
Precipitation 0.00 in - - ()
Sea Level Pressure  
Sea Level Pressure 29.88 in    
Wind  
Wind Speed 9 mph ()    
Max Wind Speed 23 mph    
Max Gust Speed 36 mph    
Visibility 11.0 miles    
Events      
Averages and records for this station are not official NWS values.
T = Trace of Precipitation, MM = Missing Value Source: Averaged Metar Reports

Daily Weather History Graph

Daily Weather History Graph

Search for Another Location

Airport or City:

Trip Planner

Search our weather history database for the weather conditions in past years. The results will help you decide how hot, cold, wet, or windy it might be!

Date:

Astronomy

Jan. 19, 2014 Rise Set
Actual Time 6:05 AM CST 5:40 PM CST
Civil Twilight 5:42 AM CST 6:03 PM CST
Nautical Twilight 5:16 AM CST 6:29 PM CST
Astronomical Twilight 4:51 AM CST 6:54 PM CST
Moon 8:32 PM CST (1/19) 8:16 AM CST (1/19)
Length of Visible Light 12h 20m
Length of Day
11h 35m
Waning Gibbous, 89% of the Moon is Illuminated
Jan 19
Waning Gibbous
Jan 23
Last Quarter
Jan 30
New
Feb 6
First Quarter
Feb 14
Full

Hourly Weather History & Observations

Time (CST) Temp. Heat Index Dew Point Humidity Pressure Visibility Wind Dir Wind Speed Gust Speed Precip Events Conditions
6:00 AM 73 °F - 65 °F 70% 29.92 in 12 mi SW 6.9 mph - -  
6:00 AM 73.4 °F - 64.4 °F 73% 29.89 in - SW 6.9 mph - N/A   Clear
7:00 AM 71.6 °F - 66.2 °F 83% 29.91 in - ENE 4.6 mph - N/A   Clear
8:00 AM 77.0 °F - 66.2 °F 69% 29.94 in - West 5.8 mph - N/A   Clear
9:00 AM 82 °F - 65 °F 47% 29.98 in 12 mi WNW 3.5 mph - -  
9:00 AM 82.4 °F 83.9 °F 64.4 °F 54% 29.95 in - WNW 3.5 mph - N/A   Clear
10:00 AM 87.8 °F 88.5 °F 62.6 °F 43% 29.93 in - NNW 3.5 mph - N/A   Clear
11:00 AM 89.6 °F 90.1 °F 62.6 °F 40% 29.91 in - North 9.2 mph - N/A   Clear
12:00 PM 90 °F - 63 °F 30% 29.91 in 12 mi East 17.3 mph - -  
12:00 PM 89.6 °F 90.1 °F 62.6 °F 40% 29.88 in - East 17.3 mph - N/A   Clear
1:00 PM 89.6 °F 91.1 °F 64.4 °F 43% 29.86 in - East 21.9 mph - N/A   Clear
2:00 PM 89.6 °F 90.1 °F 62.6 °F 40% 29.83 in - East 23.0 mph 35.7 mph N/A   Clear
3:00 PM 90 °F - 64 °F 32% 29.85 in 12 mi East 20.7 mph - -  
3:00 PM 89.6 °F 91.1 °F 64.4 °F 43% 29.82 in - East 20.7 mph 34.5 mph N/A   Clear
4:00 PM 89.6 °F 91.1 °F 64.4 °F 43% 29.82 in 6.2 mi ENE 19.6 mph 31.1 mph N/A   Partly Cloudy
5:00 PM 86.0 °F 88.2 °F 66.2 °F 51% 29.84 in - East 17.3 mph 28.8 mph N/A   Clear
6:00 PM 81 °F - 66 °F 52% 29.82 in 12 mi East 10.4 mph - -   Scattered Clouds
6:00 PM 84.2 °F 86.6 °F 66.2 °F 55% 29.85 in - East 16.1 mph - N/A   Clear
7:00 PM 80.6 °F 83.2 °F 68.0 °F 65% 29.87 in - East 15.0 mph - N/A   Clear
8:00 PM 80.6 °F 82.7 °F 66.2 °F 61% 29.89 in - NNE 6.9 mph - N/A   Clear